[[{"header":{"parameterUnit":"m.s-1","parameterCategory":1,"la1":30.2991,"la2":30.254,"lo1":-89.0895,"lo2":-89.0444,"dy":0.0017,"dx":0.0017,"nx":28,"ny":28,"refTime":"2024-12-03T03:00:00:Z","depth":0,"parameterNumber":2,"parameterNumberName":"U-component_of_WINDS"},"data":[0,0,0,0,0,0,0,0,0,0,0,0,0,0,0,0,0,0,0,0,0,0,0,0,0,0,0,0,0,0,0,0,0,0,0,0,0,0,0,0,0,0,0,0,0,0,0,0,0,0,0,0,0,0,0,0,0,0,-2.2029,-2.2029,0,-2.2069,-2.2069,-2.2069,-2.2026,-2.2025,-2.2023,-2.2021,-2.2062,-2.2064,-2.2067,0,0,0,0,0,0,0,0,0,0,0,0,0,-2.1914,-2.1916,-2.2029,-2.2029,-2.203,-2.2068,-2.2069,-2.207,-2.2027,-2.2025,-2.2023,-2.2021,-2.2061,-2.2064,-2.2067,0,0,0,0,0,0,0,0,0,0,0,0,0,-2.196,-2.1917,-2.2029,-2.2013,-2.2012,-2.2068,-2.2069,-2.207,-2.2027,-2.2025,-2.2022,-2.202,-2.206,-2.2064,-2.2068,-2.2141,0,0,-2.208,-2.2081,0,0,0,0,0,0,0,0,-2.1957,-2.1964,-2.2015,-2.2014,-2.2013,-2.204,-2.2043,-2.2094,-2.2028,-2.2021,-2.2021,-2.2019,-2.2057,-2.2061,-2.2073,-2.2143,-2.2145,-2.208,-2.2082,-2.2084,-2.2085,0,0,0,0,0,0,0,-2.1954,-2.1962,-2.2044,-2.2016,-2.2015,-2.2003,-2.2007,-2.2053,-2.2052,-2.2022,-2.2019,-2.2024,-2.2056,-2.207,-2.2074,-2.2146,-2.208,-2.2083,-2.2086,-2.2087,-2.2276,-2.2278,0,0,0,0,0,0,-2.1953,-2.196,-2.2043,-2.2046,-2.1978,-2.2007,-2.2012,-2.2034,-2.2052,-2.2052,-2.2026,-2.2022,-2.2064,-2.207,-2.2075,-2.2161,-2.2084,-2.2088,-2.209,-2.2273,-2.2276,-2.2279,0,0,0,0,0,0,-2.195,-2.1961,-2.2042,-2.2002,-2.2011,-2.2012,-2.2037,-2.2036,-2.205,-2.2055,-2.2055,-2.2041,-2.2063,-2.207,-2.2125,-2.2162,-2.2089,-2.2093,-2.227,-2.2274,-2.2278,-2.2335,0,0,0,0,0,0,-2.1947,-2.196,-2.1989,-2.2003,-2.2014,-2.2091,-2.204,-2.2038,-2.2057,-2.2052,-2.2069,-2.2069,-2.2061,-2.2119,-2.2129,-2.2166,-2.2096,-2.2266,-2.2272,-2.2276,-2.233,-2.2341,-2.235,0,0,0,0,0,-2.1943,-2.2004,-2.199,-2.2001,-2.2049,-2.2093,-2.2099,-2.2089,-2.206,-2.2088,-2.2091,-2.2069,-2.2157,-2.2125,-2.2136,-2.2175,-2.2264,-2.227,-2.2276,-2.2325,-2.2338,-2.2349,0,0,0,0,0,0,-2.1994,-2.2005,-2.1991,-2.2057,-2.2075,-2.2086,-2.2122,-2.2104,-2.213,-2.2124,-2.211,-2.2114,-2.2172,-2.2179,-2.2144,-2.2246,-2.2205,-2.2214,-2.224,-2.2252,-2.2262,-2.2259,-2.2099,0,0,0,0,0,-2.2013,-2.2048,-2.2056,-2.2114,-2.2123,-2.2121,-2.214,-2.213,-2.2148,-2.2155,-2.2162,-2.2179,-2.2211,-2.2232,-2.2261,-2.2331,-2.2333,-2.2363,-2.2372,-2.2381,-2.2388,-2.2423,-2.2436,-2.2299,-2.2299,-2.2298,0,0,-2.2053,-2.2063,-2.2086,-2.2125,-2.2137,-2.2173,-2.2128,-2.2168,-2.2194,-2.2161,-2.2213,-2.2219,-2.2237,-2.2299,-2.2327,-2.2307,-2.2426,-2.2388,-2.2395,-2.2397,-2.2431,-2.2444,-2.2455,-2.2303,-2.2302,-2.2301,0,0,-2.2143,-2.2155,-2.2204,-2.2217,-2.2236,-2.2234,-2.2245,-2.2259,-2.2261,-2.2313,-2.2288,-2.2319,-2.2374,-2.2388,-2.2402,-2.2495,-2.2475,-2.2505,-2.2557,-2.2592,-2.2602,-2.2612,-2.2644,-2.2656,-2.2512,-2.2513,-2.2513,0,-2.219,-2.2244,-2.2231,-2.2273,-2.229,-2.2261,-2.231,-2.2323,-2.2351,-2.2362,-2.2339,-2.2406,-2.2417,-2.2481,-2.2503,-2.2516,-2.2528,-2.2503,-2.2602,-2.2611,-2.262,-2.265,-2.2663,-2.2516,-2.2516,-2.2515,-2.2515,0,-2.23,-2.2337,-2.2374,-2.2401,-2.2422,-2.2467,-2.2461,-2.2483,-2.2472,-2.2471,-2.2524,-2.2535,-2.2565,-2.258,-2.2569,-2.2642,-2.2628,-2.2604,-2.2563,-2.2637,-2.2665,-2.2677,-2.2521,-2.252,-2.2519,-2.2518,0,0,-2.2424,-2.2442,-2.2456,-2.2467,-2.2485,-2.2513,-2.2556,-2.2586,-2.2605,-2.2624,-2.2659,-2.2705,-2.2682,-2.2698,-2.2689,-2.2719,-2.2791,-2.2691,-2.2691,-2.2708,-2.287,-2.2887,-2.2901,-2.2777,-2.2779,-2.2781,-2.2868,0,-2.2514,-2.2589,-2.2578,-2.265,-2.2683,-2.2655,-2.2692,-2.2707,-2.2707,-2.2735,-2.2736,-2.2768,-2.2736,-2.2745,-2.2774,-2.2776,-2.2823,-2.277,-2.2809,-2.281,-2.2804,-2.2916,-2.2935,-2.3016,-2.2879,-2.2881,-2.2882,0,-2.2629,-2.2652,-2.2727,-2.2738,-2.2751,-2.2785,-2.281,-2.2837,-2.2853,-2.2851,-2.2868,-2.2852,-2.2894,-2.2852,-2.2909,-2.2873,-2.2888,-2.2891,-2.2894,-2.2897,-2.285,-2.2921,-2.3042,-2.3054,-2.2899,-2.2898,-2.2897,0,-2.2711,-2.276,-2.2811,-2.2821,-2.2836,-2.286,-2.2867,-2.288,-2.2897,-2.2919,-2.293,-2.2957,-2.2971,-2.2991,-2.2983,-2.2953,-2.3041,-2.2999,-2.3039,-2.3039,-2.3059,-2.3057,-2.3183,-2.307,-2.307,-2.307,-2.3069,0,-2.2812,-2.2858,-2.2848,-2.2879,-2.293,-2.2916,-2.2967,-2.297,-2.2982,-2.3012,-2.299,-2.3019,-2.3006,-2.3034,-2.3028,-2.3075,-2.3082,-2.308,-2.3078,-2.3082,-2.3082,-2.3091,-2.3085,-2.3073,-2.3072,-2.3071,-2.3071,0,-2.2912,-2.2907,-2.296,-2.2968,-2.2972,-2.3008,-2.3016,-2.3044,-2.3042,-2.3081,-2.309,-2.3087,-2.3119,-2.3112,-2.3147,-2.3142,-2.3201,-2.3192,-2.3196,-2.3193,-2.3234,-2.323,-2.3369,-2.3386,-2.3263,-2.3264,-2.3265,0,-2.2976,-2.3011,-2.3023,-2.3042,-2.305,-2.3081,-2.3099,-2.3086,-2.3105,-2.3124,-2.315,-2.318,-2.3203,-2.3254,-2.3255,-2.3281,-2.3272,-2.3319,-2.3276,-2.3278,-2.3271,-2.3269,-2.3271,-2.3327,-2.3329,-2.333,-2.3331,0,-2.309,-2.3086,-2.3112,-2.3137,-2.3158,-2.3177,-2.3194,-2.3211,-2.32,-2.3222,-2.3254,-2.3272,-2.3306,-2.3335,-2.3359,-2.3365,-2.3346,-2.3345,-2.3355,-2.3359,-2.3359,-2.3358,-2.3218,-2.3341,-2.334,-2.334,-2.3339,-2.3339,-2.3174,-2.3203,-2.3215,-2.3245,-2.3256,-2.3272,-2.3298,-2.3299,-2.3326,-2.3353,-2.3344,-2.338,-2.3392,-2.3422,-2.3431,-2.3458,-2.3441,-2.3457,-2.346,-2.3464,-2.3468,-2.3356,-2.3463,-2.3463,-2.3462,-2.3462,-2.3462,0,-2.3286,-2.3292,-2.3319,-2.3343,-2.3366,-2.3345,-2.3362,-2.3383,-2.3414,-2.3428,-2.345,-2.3486,-2.3513,-2.3516,-2.3541,-2.3563,-2.3554,-2.357,-2.3568,-2.3569,-2.3484,-2.3471,-2.3576,-2.3576,-2.3576,-2.3576,-2.3576,-2.3576,-2.3347,-2.3394,-2.3391,-2.3443,-2.3448,-2.3483,-2.3494,-2.3509,-2.3519,-2.3559,-2.3582,-2.3583,-2.3592,-2.3618,-2.3642,-2.3641,-2.3651,-2.367,-2.3667,-2.3587,-2.3575,-2.3564,-2.3553,-2.3673,-2.3673,-2.3749,-2.375,-2.3751]},{"header":{"parameterUnit":"m.s-1","parameterCategory":1,"la1":30.2991,"la2":30.254,"lo1":-89.0895,"lo2":-89.0444,"dy":0.0017,"dx":0.0017,"nx":28,"ny":28,"refTime":"2024-12-03T03:00:00:Z","depth":0,"parameterNumber":3,"parameterNumberName":"V-component_of_WINDS"},"data":[0,0,0,0,0,0,0,0,0,0,0,0,0,0,0,0,0,0,0,0,0,0,0,0,0,0,0,0,0,0,0,0,0,0,0,0,0,0,0,0,0,0,0,0,0,0,0,0,0,0,0,0,0,0,0,0,0,0,-3.8473,-3.8474,0,-3.8565,-3.8567,-3.8568,-3.8541,-3.8539,-3.8537,-3.8536,-3.8627,-3.8631,-3.8636,0,0,0,0,0,0,0,0,0,0,0,0,0,-3.8268,-3.8272,-3.8473,-3.8474,-3.8475,-3.8565,-3.8567,-3.8568,-3.8542,-3.8539,-3.8537,-3.8535,-3.8626,-3.8631,-3.8636,0,0,0,0,0,0,0,0,0,0,0,0,0,-3.8359,-3.8274,-3.8472,-3.8473,-3.8474,-3.8565,-3.8567,-3.8568,-3.8542,-3.8539,-3.8536,-3.8534,-3.8624,-3.863,-3.8637,-3.8732,0,0,-3.8656,-3.8659,0,0,0,0,0,0,0,0,-3.8354,-3.8366,-3.8472,-3.8473,-3.8474,-3.8539,-3.8528,-3.8623,-3.8543,-3.8516,-3.8536,-3.8532,-3.86,-3.8608,-3.8632,-3.8736,-3.874,-3.8656,-3.866,-3.8663,-3.8665,0,0,0,0,0,0,0,-3.8347,-3.8362,-3.8509,-3.8473,-3.8475,-3.8467,-3.8477,-3.8546,-3.8573,-3.8518,-3.8516,-3.8528,-3.86,-3.8626,-3.8634,-3.8742,-3.8656,-3.8662,-3.8666,-3.8668,-3.8927,-3.893,0,0,0,0,0,0,-3.8341,-3.8357,-3.8506,-3.8512,-3.8406,-3.8473,-3.8484,-3.8521,-3.8572,-3.8577,-3.853,-3.8526,-3.8616,-3.8626,-3.8637,-3.875,-3.8663,-3.8669,-3.8672,-3.8924,-3.8928,-3.8931,0,0,0,0,0,0,-3.8336,-3.8354,-3.8503,-3.8434,-3.8452,-3.8479,-3.8521,-3.8524,-3.855,-3.8581,-3.8585,-3.8552,-3.8614,-3.8628,-3.8708,-3.8753,-3.8672,-3.8677,-3.892,-3.8925,-3.8929,-3.8979,0,0,0,0,0,0,-3.8331,-3.8353,-3.8391,-3.8435,-3.8456,-3.8574,-3.8524,-3.8528,-3.8561,-3.8557,-3.8602,-3.8607,-3.8613,-3.8699,-3.8715,-3.876,-3.8682,-3.8916,-3.8922,-3.8928,-3.8973,-3.8985,-3.8994,0,0,0,0,0,-3.8323,-3.8401,-3.8393,-3.8411,-3.8504,-3.8577,-3.8589,-3.8595,-3.8565,-3.8602,-3.8622,-3.8606,-3.8746,-3.8708,-3.8725,-3.8773,-3.8914,-3.8921,-3.8927,-3.8969,-3.8982,-3.8994,0,0,0,0,0,0,-3.836,-3.8407,-3.8398,-3.8492,-3.8531,-3.8572,-3.8619,-3.861,-3.8657,-3.8651,-3.8656,-3.8666,-3.8748,-3.8769,-3.8725,-3.8867,-3.8825,-3.8836,-3.885,-3.8864,-3.8874,-3.8867,-3.8688,0,0,0,0,0,-3.8379,-3.8435,-3.8473,-3.8552,-3.8572,-3.8593,-3.8624,-3.8626,-3.8666,-3.8681,-3.8707,-3.8745,-3.8798,-3.8832,-3.8882,-3.8976,-3.8985,-3.9018,-3.9028,-3.9037,-3.9046,-3.9095,-3.911,-3.8954,-3.8954,-3.8954,0,0,-3.8419,-3.8451,-3.8486,-3.856,-3.859,-3.8647,-3.8606,-3.8668,-3.871,-3.8691,-3.8768,-3.8788,-3.8831,-3.8918,-3.8958,-3.8938,-3.9091,-3.9046,-3.9052,-3.9057,-3.9104,-3.9118,-3.9131,-3.8959,-3.8958,-3.8957,0,0,-3.852,-3.8551,-3.862,-3.8651,-3.8697,-3.871,-3.8726,-3.8769,-3.8782,-3.886,-3.8846,-3.8895,-3.8986,-3.9016,-3.9043,-3.9154,-3.914,-3.9171,-3.9225,-3.9273,-3.9285,-3.9296,-3.9334,-3.9347,-3.9179,-3.918,-3.918,0,-3.8563,-3.8649,-3.8656,-3.8719,-3.8751,-3.8737,-3.8805,-3.8834,-3.8894,-3.8916,-3.8893,-3.9005,-3.9033,-3.9126,-3.9153,-3.9177,-3.9194,-3.9165,-3.9283,-3.9294,-3.9304,-3.934,-3.9355,-3.9183,-3.9182,-3.9182,-3.9182,0,-3.8699,-3.8759,-3.8808,-3.8867,-3.8904,-3.897,-3.8985,-3.9022,-3.902,-3.9035,-3.9113,-3.9146,-3.9202,-3.9224,-3.9223,-3.9317,-3.9303,-3.9282,-3.9239,-3.9322,-3.9356,-3.937,-3.9187,-3.9186,-3.9185,-3.9185,0,0,-3.8825,-3.8886,-3.8904,-3.893,-3.8979,-3.9025,-3.9089,-3.9144,-3.9175,-3.9216,-3.9269,-3.9345,-3.9325,-3.9356,-3.9358,-3.9401,-3.9484,-3.9374,-3.9375,-3.9392,-3.9587,-3.9602,-3.9618,-3.9476,-3.9478,-3.9481,-3.9583,0,-3.8929,-3.9043,-3.905,-3.9152,-3.9206,-3.9193,-3.9248,-3.9284,-3.9299,-3.9346,-3.9363,-3.9416,-3.9387,-3.9405,-3.9447,-3.9465,-3.9523,-3.9458,-3.9523,-3.9525,-3.9511,-3.9636,-3.9652,-3.9747,-3.9597,-3.9599,-3.9601,0,-3.9066,-3.9112,-3.9219,-3.9259,-3.9282,-3.9332,-3.9382,-3.9428,-3.9467,-3.9475,-3.951,-3.9505,-3.9569,-3.9525,-3.9612,-3.9567,-3.9594,-3.9607,-3.9611,-3.9616,-3.9567,-3.9643,-3.9778,-3.9792,-3.9622,-3.962,-3.9619,0,-3.9144,-3.9233,-3.9309,-3.9331,-3.9381,-3.9416,-3.9438,-3.9474,-3.9506,-3.955,-3.957,-3.9621,-3.9648,-3.9686,-3.9695,-3.9663,-3.9781,-3.9738,-3.9787,-3.9787,-3.9812,-3.981,-3.9952,-3.9832,-3.9832,-3.9831,-3.9831,0,-3.9259,-3.9325,-3.9345,-3.9391,-3.9464,-3.9471,-3.9542,-3.9562,-3.9594,-3.9642,-3.9634,-3.968,-3.9689,-3.9736,-3.9743,-3.9812,-3.9825,-3.9832,-3.9833,-3.9832,-3.9831,-3.9849,-3.9841,-3.9835,-3.9834,-3.9834,-3.9833,0,-3.9359,-3.9375,-3.9456,-3.9496,-3.9508,-3.956,-3.9593,-3.9637,-3.9651,-3.9712,-3.9727,-3.9749,-3.9803,-3.9816,-3.9881,-3.9886,-3.9967,-3.9963,-3.9954,-3.9953,-4.0001,-3.9996,-4.0158,-4.0179,-4.0047,-4.0048,-4.0049,0,-3.943,-3.948,-3.9526,-3.9558,-3.9582,-3.9634,-3.9667,-3.9676,-3.971,-3.9757,-3.9795,-3.9848,-3.9892,-3.9979,-4.0,-4.0049,-4.0044,-4.0098,-4.0052,-4.0049,-4.0043,-4.0039,-4.0043,-4.0106,-4.0107,-4.0109,-4.011,0,-3.9554,-3.9559,-3.9607,-3.9658,-3.9698,-3.9738,-3.9776,-3.9803,-3.9816,-3.9855,-3.9911,-3.9945,-4.0011,-4.0064,-4.0113,-4.0134,-4.0123,-4.0124,-4.0138,-4.0137,-4.0129,-4.0132,-3.9977,-4.012,-4.0119,-4.0118,-4.0118,-4.0117,-3.964,-3.9684,-3.9722,-3.9776,-3.9806,-3.9841,-3.9884,-3.9903,-3.9951,-4.0006,-4.0007,-4.0068,-4.0104,-4.0169,-4.0193,-4.0239,-4.0223,-4.0243,-4.0248,-4.0252,-4.0256,-4.0123,-4.0248,-4.0248,-4.0248,-4.0248,-4.0247,0,-3.9762,-3.9786,-3.9835,-3.9889,-3.9931,-3.9919,-3.996,-3.9995,-4.0049,-4.0084,-4.0127,-4.019,-4.0241,-4.0266,-4.0316,-4.0348,-4.0345,-4.0361,-4.0358,-4.0362,-4.0269,-4.0251,-4.0363,-4.0363,-4.0363,-4.0363,-4.0363,-4.0363,-3.983,-3.9903,-3.9912,-3.9999,-4.0022,-4.0082,-4.0106,-4.0138,-4.0166,-4.0238,-4.028,-4.0296,-4.0327,-4.0379,-4.0424,-4.043,-4.0448,-4.0466,-4.047,-4.0381,-4.0369,-4.0358,-4.0341,-4.0471,-4.0471,-4.0559,-4.056,-4.0561]}]]